Regional Weather Roundup
Issued by NWS

Home | Current Version | Previous Version | Text Only | Print | Product List | Glossary Off
Versions: 1 2 3 4 5 6 7 8 9 10 11 12 13 14 15 16 17 18 19 20 21 22 23 24 25 26 27 28 29 30 31 32 33 34 35 36 37 38 39 40 41 42 43 44 45 46 47 48 49 50

000
ASUS43 KDMX 302107
RWRIA

WEATHER ROUNDUP FOR IOWA
NATIONAL WEATHER SERVICE DES MOINES IA
400 PM CDT TUE SEP 30 2014

NOTE: "FAIR" INDICATES FEW OR NO CLOUDS BELOW 12,000 FEET WITH NO
SIGNIFICANT WEATHER AND/OR OBSTRUCTIONS TO VISIBILITY.

* - THESE STATIONS ARE NOT NWS STATIONS...THUS NOT UNDER NWS
QUALITY CONTROL.  THEY ALSO DO NOT REPORT WEATHER SUCH
AS PRECIPITATION OR FOG.

IAZ001>003-012>014-020>022-031>034-043>046-302200-
   NORTHWEST IOWA

CITY           SKY/WX    TMP DP  RH WIND       PRES   REMARKS
CARROLL *      PTSUNNY   68  59  73 E14G20    29.81F
CHEROKEE *     RAIN      63  63 100 SE3       29.84S
DENISON *      LGT RAIN  64  64 100 NW5       29.81R
LE MARS *      PTSUNNY   64  63  94 SW18G39   29.78F
ORANGE CITY *  DRIZZLE   64  61  88 SE7G16    29.78F
SHELDON *      LGT RAIN  61  61 100 SE13G25   29.77F
SIOUX CITY     CLOUDY    65  63  93 S13G22    29.78F
SPENCER        CLOUDY    64  56  75 SE10      29.85S
STORM LAKE *   LGT RAIN  63  61  94 E6G14     29.85S
$$

IAZ055>058-069>071-079>083-090>094-302200-
   SOUTHWEST IOWA

CITY           SKY/WX    TMP DP  RH WIND       PRES   REMARKS
ATLANTIC *     CLOUDY    72  63  73 SW3       29.78S
AUDUBON *      LGT RAIN  70  59  68 E8        29.81F
CLARINDA *     MOSUNNY   81  57  44 S8G17     29.79F HX  81
COUNCIL BLFS * RAIN      64  64 100 W6        29.81S
CRESTON *      MOSUNNY   75  64  69 E13G18    29.82F
HARLAN  *      RAIN      64  64 100 NW13G22   29.84R
LAMONI         MOSUNNY   78  65  63 SE6       29.83F HX  80
RED OAK *      LGT RAIN  70  64  83 W13G18    29.79S
SHENANDOAH *   LGT RAIN  68  64  88 W9G16     29.81R
$$

IAZ047>049-059>061-072>074-084-302200-
   CENTRAL IOWA

CITY           SKY/WX    TMP DP  RH WIND       PRES   REMARKS
AMES           SUNNY     67  57  70 E12       29.87F
ANKENY *       SUNNY     66  59  77 SE10G18   29.86F
CHARITON *     SUNNY     73  61  64 SE13      29.86F
DES MOINES     PTSUNNY   69  59  70 E13       29.86F
GRINNELL*      SUNNY     68  55  64 E12       29.91F
KNOXVILLE *    SUNNY     72  57  60 SE12G17   29.86F
MARSHALLTOWN   SUNNY     66  56  70 SE12      29.90F
PELLA *        SUNNY     73  57  56 SE10      29.89F
PERRY *          N/A     68  59  73 SE13      29.84F
$$

IAZ004>006-015-016-023>025-035-036-302200-
   NORTH CENTRAL IOWA

CITY           SKY/WX    TMP DP  RH WIND       PRES   REMARKS
ALGONA *       MOSUNNY   68  55  64 SE10G17   29.87F
CLARION *      SUNNY     68  55  64 SE15G21   29.87F
ESTHERVILLE    PTSUNNY   63  54  72 SE15G21   29.86S
FORT DODGE *   MOSUNNY   66  55  68 SE9       29.86F
MASON CITY     PTSUNNY   63  53  70 SE15      29.92F
FOREST CITY *  PTSUNNY   61  54  77 E12G20    29.89F
IOWA FALLS *   PTSUNNY   68  55  64 SE10      29.90F
$$

IAZ007>011-017>019-026>030-037>042-050>054-066-302200-
   NORTHEAST IOWA

CITY           SKY/WX    TMP DP  RH WIND       PRES   REMARKS
CEDAR RAPIDS   SUNNY     63  54  72 E8        29.94
CHARLES CITY * SUNNY     63  50  63 SE12      29.94S
CLINTON *      MOSUNNY   63  46  55 E9        30.00F
DECORAH *      SUNNY     57  46  67 E9        29.96F
MONTICELLO *   SUNNY     61  50  67 E10       29.96F
OELWEIN *      SUNNY     63  48  59 E14       29.95F
WATERLOO       MOSUNNY   65  51  60 SE15      29.92F
$$

IAZ064-065-067-068-078-302200-
   EAST CENTRAL IOWA

CITY           SKY/WX    TMP DP  RH WIND       PRES   REMARKS
IOWA CITY      MOSUNNY   68  54  60 E9        29.95F
MT. PLEASANT * SUNNY     70  54  56 E7        29.93F
MUSCATINE *    SUNNY     70  52  52 E12G17    29.93F
$$

IAZ062-063-075>077-085>089-095>099-302200-
   SOUTHEAST IOWA

CITY           SKY/WX    TMP DP  RH WIND       PRES   REMARKS
BURLINGTON     MOSUNNY   71  57  61 E8        29.92F
FAIRFIELD *    SUNNY     68  57  68 E9        29.92S
FORT MADISON * SUNNY     73  57  56 SE7       29.93S HAZE
KEOKUK *       SUNNY     72  61  68 E9        29.91S
OSKALOOSA *      N/A     72  57  60 E10       29.90F
CENTERVILLE *  SUNNY     72  63  73 E9        29.90F
OTTUMWA        SUNNY     70  57  63 E13       29.90S
WASHINGTON *   SUNNY     70  55  60 E12       29.92F
$$

ABBREVIATIONS USED IN REMARKS
   TC - TEMPERATURES IN CELSIUS
  WCI - WIND CHILL INDEX
   HX - HEAT INDEX
  VSB - VISIBILITY
$$




USA.gov is the U.S. government's official web portal to all federal, state and local government web resources and services.